sat.trackr.live / text

‹ back to catalog

DISKSAT B

NORAD 67220 · 2025-305B

PAYLOAD ACTIVE UNKNOWN

§ Identity

Operator
Country
US
Launch date
2025-12-18
Launch site
WLPIS
Launch vehicle
Mass (kg)
RCS (m²)

External: N2YO · Heavens-Above · Gunter

§ Orbital elements

Epoch: 2026-05-25T04:32:19.733856Z

Period
95.46 min
Inclination
45.0025°
Eccentricity
0.0003786
Mean motion
15.08559342 rev/d
Perigee alt
538.0 km
Apogee alt
543.2 km
Semi-major
6,918.7 km
B*
1.3366e-4
RAAN
205.5862°
Arg perigee
12.9831°
Mean anomaly
347.1141°
Rev number
2,384

§ Raw data

DISKSAT B1 67220U 25305B   26145.18911729  .00001876  00000+0  13366-3 0  99912 67220  45.0025 205.5862 0003786  12.9831 347.1141 15.08559342 23841

JSON: /api/v1/satellites/67220 · /tle

For live sub-satellite position, see the globe view (requires WebGL).

§ Visibility from observer

Set your observer location to see the next 7 days of passes ≥ 10°. The values pass through the URL so the page stays shareable.

No JS? Fill the form by hand. The geolocation button needs JavaScript.